This demonstration page uses our WeatherBlox Daily Observations layout. Learn more.

Hourly Observations for September 25, 2020

Temp ( °F °C ) Dew Point ( °F °C ) Humidity (%) Winds ( mph kmh ) Pressure ( in mb ) Visibility ( mi km ) Precip ( " mm )
12:54 am 00:54 Clear 65 18.3 58 14.4 78 78 Calm 29.76 1008 10 16.0934 0 0
1:54 am 01:54 Clear 65 18.3 60 15.6 84 84 Calm 29.76 1008 10 16.0934 0 0
2:54 am 02:54 Clear 64 17.8 60 15.6 87 87 S 6 9 29.75 1008 10 16.0934 0 0
3:54 am 03:54 Clear 63 17.2 60 15.6 90 90 S 6 9 29.74 1007 10 16.0934 0 0
4:54 am 04:54 Clear 63 17.2 60 15.6 90 90 SSE 7 11 29.74 1007 10 16.0934 0 0
5:54 am 05:54 Clear 61 16.1 59 15 93 93 S 6 9 29.74 1007 10 16.0934 0 0
6:54 am 06:54 Clear 62 16.7 59 15 90 90 SSE 7 11 29.75 1008 10 16.0934 0 0
7:54 am 07:54 Sunny 61 16.1 58 14.4 90 90 SSE 7 11 29.76 1008 10 16.0934 0 0
8:54 am 08:54 Sunny 66 18.9 62 16.7 87 87 S 9 15 29.76 1008 10 16.0934 0 0
9:54 am 09:54 Sunny 71 21.7 62 16.7 73 73 SSW 13 20 29.77 1008 10 16.0934 0 0
10:54 am 10:54 Sunny 76 24.4 63 17.2 64 64 S 10 17 29.77 1008 10 16.0934 0 0
11:54 am 11:54 Sunny 80 26.7 63 17.2 56 56 SSW 12 19 29.75 1008 10 16.0934 0 0
12:54 pm 12:54 Sunny 84 28.9 64 17.8 51 51 SSW 9 15 29.73 1007 10 16.0934 0 0
1:54 pm 13:54 Sunny 88 31.1 63 17.2 43 43 S 14 22 29.69 1006 10 16.0934 0 0
2:54 pm 14:54 Sunny 90 32.2 62 16.7 39 39 SW 10 17 29.69 1005 10 16.0934 0 0
3:54 pm 15:54 Sunny 91 32.8 60 15.6 35 35 SSW 9 15 29.69 1005 10 16.0934 0 0
4:54 pm 16:54 Sunny 91 32.8 60 15.6 35 35 SW 9 15 29.68 1005 10 16.0934 0 0
5:54 pm 17:54 Sunny 91 32.8 60 15.6 35 35 WSW 6 9 29.68 1005 10 16.0934 0 0
6:54 pm 18:54 Sunny 85 29.4 63 17.2 48 48 SSE 5 7 29.69 1005 10 16.0934 0 0
7:54 pm 19:54 Clear 79 26.1 60 15.6 52 52 N 7 11 29.71 1006 10 16.0934 0 0
8:54 pm 20:54 Clear 74 23.3 60 15.6 62 62 N 3 6 29.73 1007 8 12.87472 0 0
9:54 pm 21:54 Clear 71 21.7 59 15 66 66 NW 5 7 29.74 1007 9 14.48406 0 0
10:54 pm 22:54 Clear 69 20.6 58 14.4 68 68 Calm 29.73 1007 9 14.48406 0 0
11:54 pm 23:54 Clear 66 18.9 58 14.4 75 75 Calm 29.71 1006 9 14.48406 0 0

Powered by AerisWeather